2020-053A

Last updated on Jan. 21, 2021, 6:16 a.m. UTC

1 45985U 20053A   21020.73865914 -.00000313  00000-0  00000+0 0  9996
2 45985   0.0637 259.6145 0001084 115.0327 114.5820  1.00273368  1858
UTC
Height (km)
Latitude
Longitude
Inclination
Orbital Period
UTC large
Height (km)
Speed (km/s)
/
Latitude / Longitude
Inclination (degrees)
Orbital Period (minutes)
Azimuth
Elevation
Range (km)
Doppler Factor
iOS Compass Heading
iOS Angle

Next 30 passes for location: Hong Kong

Rise time Rise Azimuth (degrees) Set time Set Azimuth (degrees) Duration Max altitude (degrees)

No matching passes for this satellites